Weather observations for the past three days for
Pago Pago, AS, Samoa
| Date | Time (sst) | Wind (kph) | Vis. (km) | Weather | Sky Cond. | Temperature (ºC) | Relative Humidity | Wind Chill (°C) | Heat Index (°C) | Pressure | Precipitation (cm) | ||||||
|---|---|---|---|---|---|---|---|---|---|---|---|---|---|---|---|---|---|
| Air | Dwpt | 6 hour | altimeter (cm) | sea level (mb) | 1 hr | 3 hr | 6 hr | ||||||||||
| Max. | Min. | ||||||||||||||||
| 02 | 19:50 | E 31 G 41 | 16.09 | Partly Cloudy | SCT021 | 26.3 | 22.4 | 79% | 28 | 76.23 | 1016.3 | ||||||
| 02 | 18:52 | E 30 G 37 | 16.09 | Partly Cloudy | SCT021 | 26.4 | 22.5 | 29.1 | 26.4 | 79% | 28 | 76.17 | 1015.6 | ||||
| 02 | 17:50 | SE 30 G 37 | 19.31 | Partly Cloudy | SCT020 | 26.6 | 22.6 | 79% | 29 | 76.12 | 1015.1 | ||||||
| 02 | 16:51 | E 33 G 41 | 19.31 | Partly Cloudy and Breezy | SCT019 | 27.6 | 23.2 | 77% | 31 | 76.1 | 1014.7 | ||||||
| 02 | 15:50 | E 31 G 41 | 19.31 | Partly Cloudy | SCT019 | 28.2 | 23.5 | 76% | 32 | 76.07 | 1014.2 | ||||||
| 02 | 14:50 | E 33 G 43 | 19.31 | Partly Cloudy and Breezy | SCT016 | 28.8 | 23.7 | 74% | 33 | 76.07 | 1014.2 | ||||||
| 02 | 13:50 | E 33 | 19.31 | Overcast and Breezy | SCT019 BKN040 BKN100 OVC200 | 28.8 | 24.2 | 76% | 33 | 76.12 | 1014.9 | ||||||
| 02 | 12:50 | E 33 G 41 | 19.31 | Mostly Cloudy and Breezy | SCT019 BKN040 BKN100 | 29.1 | 24.4 | 29.1 | 25 | 76% | 34 | 76.15 | 1015.4 | 0.03 | |||
| 02 | 11:50 | E 31 G 41 | 19.31 | Mostly Cloudy | SCT019 BKN040 BKN100 | 28.3 | 24.3 | 79% | 33 | 76.2 | 1015.9 | ||||||
| 02 | 10:55 | E 30 G 41 | 19.31 | Overcast | SCT018 BKN040 OVC100 | 28 | 24.1 | 79% | 32 | 76.25 | 1016.8 | ||||||
| 02 | 09:50 | E 30 G 41 | 19.31 | Overcast | SCT017TCU BKN040 OVC100 | 26.6 | 24.4 | 88% | 29 | 76.3 | 1017.3 | 0.03 | |||||
| 02 | 08:55 | E 30 G 39 | 16.09 | Overcast | SCT016TCU BKN040 OVC100 | 26.2 | 24.5 | 90% | 29 | 76.28 | 1016.9 | ||||||
| 02 | 06:50 | E 28 G 41 | 16.09 | Light Showers Rain | BKN014TCU OVC040 | 25 | 24.1 | 26.2 | 25 | 95% | 26 | 76.2 | 1015.9 | 0.48 | |||
| 02 | 05:50 | E 28 | 16.09 | Overcast | BKN016 BKN040 OVC100 | 25.6 | 24 | 91% | 27 | 76.15 | 1015.2 | ||||||
| 02 | 04:50 | E 20 G 31 | 16.09 | Mostly Cloudy | BKN016 BKN040 BKN100 | 26 | 24.4 | 91% | 28 | 76.07 | 1014.4 | ||||||
| 02 | 03:50 | SE 22 G 31 | 16.09 | Overcast | BKN016 BKN040 OVC100 | 26.1 | 24.5 | 91% | 28 | 76.1 | 1014.6 | ||||||
| 02 | 02:50 | E 22 | 16.09 | Overcast | BKN016 BKN040 OVC100 | 25.7 | 24.2 | 91% | 27 | 76.1 | 1014.7 | ||||||
| 02 | 01:50 | SE 20 | 16.09 | Overcast | BKN015 BKN040 OVC100 | 26.2 | 24.9 | 93% | 29 | 76.1 | 1014.7 | ||||||
| 02 | 00:50 | SE 20 | 16.09 | Overcast | BKN015 BKN035 BKN100 OVC180 | 26.1 | 24.8 | 26.7 | 26.1 | 93% | 28 | 76.15 | 1015.4 | 0.18 | |||
| 01 | 23:50 | SE 26 | 16.09 | Overcast | BKN015 BKN035 BKN100 OVC180 | 26.2 | 24.8 | 92% | 29 | 76.2 | 1015.9 | ||||||
| 01 | 22:50 | E 22 | 16.09 | Overcast | BKN010 BKN035 BKN100 OVC200 | 26.1 | 24.8 | 93% | 28 | 76.2 | 1015.9 | ||||||
| 01 | 21:50 | SE 26 | 16.09 | Overcast | SCT011 BKN035 BKN100 OVC200 | 26.2 | 24.8 | 92% | 29 | 76.2 | 1015.9 | 0.13 | |||||
| 01 | 20:53 | SE 30 | 16.09 | Overcast | BKN011TCU BKN035 BKN100 OVC200 | 26.2 | 24.9 | 93% | 29 | 76.17 | 1015.6 | ||||||
| 01 | 19:54 | SE 22 | 16.09 | Mostly Cloudy | SCT012 BKN035 BKN100 BKN200 | 26.5 | 24.9 | 91% | 29 | 76.12 | 1015.1 | ||||||
| 01 | 18:51 | SE 22 G 33 | 16.09 | Mostly Cloudy | SCT012TCU BKN100 BKN200 | 26.7 | 24.8 | 28.7 | 26.7 | 89% | 30 | 76.1 | 1014.6 | ||||
| 01 | 17:53 | SE 26 | 19.31 | Mostly Cloudy | SCT012TCU BKN035 BKN100 | 26.9 | 24.8 | 88% | 30 | 76.07 | 1014.2 | ||||||
| 01 | 16:54 | SE 20 G 30 | 19.31 | Mostly Cloudy | BKN012TCU BKN035 BKN120 | 27.2 | 24.9 | 87% | 31 | 76.05 | 1013.9 | ||||||
| 01 | 15:50 | SE 26 | 19.31 | Mostly Cloudy | SCT012TCU BKN035 BKN100 | 27.7 | 25 | 85% | 32 | 76.02 | 1013.5 | ||||||
| 01 | 14:50 | E 22 G 30 | 17.70 | Mostly Cloudy | FEW010 BKN016TCU BKN040 | 28.4 | 25.7 | 85% | 34 | 76.05 | 1013.9 | ||||||
| 01 | 13:50 | E 24 G 31 | 17.70 | Mostly Cloudy | FEW010 BKN016TCU BKN040 | 28.7 | 25.5 | 83% | 34 | 76.1 | 1014.6 | ||||||
| 01 | 12:50 | SE 24 G 31 | 16.09 | Mostly Cloudy | FEW010 BKN016TCU BKN040 | 28.2 | 25.1 | 28.8 | 25.8 | 83% | 33 | 76.12 | 1014.9 | 0.38 | |||
| 01 | 11:50 | E 20 G 33 | 16.09 | Overcast | FEW010 BKN016TCU BKN040 OVC100 | 28.8 | 26 | 85% | 35 | 76.15 | 1015.4 | ||||||
| 01 | 10:50 | SE 22 G 33 | 12.87 | Light Showers Rain | FEW010 SCT014TCU BKN040 OVC100 | 27.5 | 25.4 | 88% | 32 | 76.2 | 1016.1 | ||||||
| 01 | 09:50 | SE 26 G 37 | 12.87 | Light Showers Rain | FEW008 BKN014TCU OVC040 | 26.8 | 25.4 | 92% | 30 | 76.2 | 1016.1 | 0.38 | |||||
| 01 | 08:50 | SE 24 G 33 | 12.87 | Light Showers Rain | FEW008 BKN014TCU OVC040 | 26.2 | 25.3 | 95% | 29 | 76.17 | 1015.6 | ||||||
| 01 | 07:50 | SE 28 G 39 | 16.09 | Mostly Cloudy | SCT016TCU BKN040 BKN100 | 26.3 | 25.2 | 94% | 29 | 76.15 | 1015.2 | ||||||
| 01 | 05:50 | SE 24 G 33 | 16.09 | Light Showers Rain | BKN016TCU BKN040 OVC100 | 25.7 | 24.8 | 95% | 27 | 76.05 | 1013.9 | ||||||
| 01 | 04:50 | SE 20 G 28 | 16.09 | Overcast | BKN017 BKN040 OVC100 | 25.5 | 24.8 | 96% | 27 | 76.02 | 1013.7 | ||||||
| 01 | 03:50 | SE 22 G 30 | 16.09 | Overcast | BKN016 BKN040 OVC100 | 25.9 | 24.9 | 94% | 28 | 76.02 | 1013.5 | 0.03 | |||||
| 01 | 02:50 | SE 26 | 16.09 | Overcast | BKN016TCU BKN040 OVC100 | 25.8 | 24.7 | 94% | 28 | 76.05 | 1013.9 | ||||||
| 01 | 01:50 | SE 24 | 16.09 | Overcast | BKN016TCU BKN040 OVC100 | 25.7 | 24.7 | 94% | 27 | 76.07 | 1014.2 | ||||||
| 01 | 00:50 | SE 26 G 33 | 16.09 | Light Showers Rain | BKN015TCU BKN035 OVC090 | 25.8 | 24.6 | 26.7 | 25.8 | 93% | 28 | 76.1 | 1014.7 | ||||
| 31 | 23:50 | SE 24 G 31 | 16.09 | Overcast | BKN015TCU BKN035 OVC090 | 26.7 | 24.5 | 88% | 30 | 76.15 | 1015.2 | ||||||
| 31 | 22:51 | E 24 G 31 | 16.09 | Overcast | BKN014TCU BKN035 OVC090 | 26.7 | 24.3 | 87% | 30 | 76.15 | 1015.2 | ||||||
| 31 | 21:50 | E 24 G 35 | 16.09 | Overcast | SCT014 OVC090 | 26.7 | 24.2 | 86% | 30 | 76.15 | 1015.2 | ||||||
| 31 | 20:50 | E 26 G 33 | 16.09 | Overcast | SCT012 OVC090 | 26.6 | 24.1 | 86% | 29 | 76.12 | 1015.1 | ||||||
| 31 | 19:50 | SE 28 | 16.09 | Overcast | BKN011TCU BKN035 OVC080 | 26.4 | 23.9 | 86% | 29 | 76.12 | 1014.9 | ||||||
| 31 | 18:50 | SE 24 G 35 | 16.09 | Mostly Cloudy | SCT012TCU BKN035 BKN080 | 26.5 | 23.7 | 29 | 25.8 | 85% | 29 | 76.07 | 1014.2 | 0.08 | |||
| 31 | 17:52 | SE 26 | 17.70 | Mostly Cloudy | SCT012TCU BKN035 BKN080 | 26.2 | 24.1 | 88% | 28 | 76.02 | 1013.7 | ||||||
| 31 | 16:52 | SE 30 G 37 | 14.48 | Light Showers Rain | SCT012TCU BKN035 OVC080 | 25.8 | 24 | 90% | 28 | 76.02 | 1013.5 | ||||||
| 31 | 15:55 | SE 28 G 39 | 17.70 | Overcast | SCT015TCU BKN035 OVC080 | 27.3 | 24 | 82% | 31 | 76 | 1013.2 | ||||||
| 31 | 14:50 | SE 24 G 35 | 19.31 | Overcast | SCT016TCU BKN040 OVC080 | 27.5 | 24.1 | 82% | 31 | 76.07 | 1014.4 | ||||||
| 31 | 13:50 | SE 24 G 35 | 19.31 | Overcast | BKN015TCU BKN040 OVC080 | 28.3 | 24 | 78% | 32 | 76.05 | 1013.9 | ||||||
| 31 | 12:50 | SE 24 G 33 | 19.31 | Overcast | BKN015TCU BKN040 OVC080 | 29 | 24.1 | 29.7 | 26.5 | 75% | 34 | 76.07 | 1014.4 | ||||
| 31 | 11:50 | E 22 G 33 | 19.31 | Mostly Cloudy | BKN015TCU BKN040 | 29.7 | 24.4 | 73% | 35 | 76.12 | 1015.1 | ||||||
| 31 | 10:50 | E 24 G 33 | 19.31 | Mostly Cloudy | BKN015TCU BKN040 | 29.1 | 24.3 | 75% | 34 | 76.2 | 1015.9 | ||||||
| 31 | 09:50 | SE 26 G 35 | 19.31 | Mostly Cloudy | SCT015TCU BKN100 BKN210 | 28.6 | 24.1 | 77% | 33 | 76.23 | 1016.3 | ||||||
| 31 | 08:50 | E 24 G 33 | 19.31 | Mostly Cloudy | SCT015TCU BKN100 BKN210 | 27.7 | 24.1 | 81% | 31 | 76.2 | 1015.9 | ||||||
| 31 | 06:50 | SE 26 G 31 | 19.31 | Mostly Cloudy | FEW019 SCT040 BKN100 | 26.5 | 23.8 | 26.5 | 26.1 | 85% | 29 | 76.12 | 1015.1 | ||||
| 31 | 05:55 | SE 26 G 33 | 16.09 | Mostly Cloudy | FEW019 SCT040 BKN100 | 26.2 | 23.8 | 87% | 28 | 76.1 | 1014.6 | ||||||
| 31 | 04:50 | SE 24 | 16.09 | Mostly Cloudy | FEW019 SCT040 BKN100 | 26.1 | 23.8 | 87% | 28 | 76.07 | 1014.4 | ||||||
| 31 | 03:50 | SE 22 | 16.09 | Mostly Cloudy | SCT019 BKN040 BKN100 | 26.2 | 23.9 | 87% | 28 | 76.07 | 1014.4 | ||||||
| 31 | 02:50 | SE 24 G 30 | 16.09 | Mostly Cloudy | SCT019 BKN040 BKN100 | 26.2 | 24.1 | 88% | 28 | 76.07 | 1014.2 | ||||||
| 31 | 01:55 | SE 24 G 33 | 16.09 | Mostly Cloudy | SCT019 BKN040 BKN100 | 26.3 | 24 | 87% | 29 | 76.07 | 1014.4 | ||||||
| 31 | 00:50 | SE 24 | 16.09 | Mostly Cloudy | SCT019 BKN040 | 26.3 | 24.1 | 26.7 | 26.3 | 88% | 29 | 76.12 | 1014.9 | ||||
| 30 | 23:50 | SE 20 | 16.09 | Mostly Cloudy | SCT019 BKN040 | 26.4 | 24.3 | 88% | 29 | 76.17 | 1015.7 | ||||||
| 30 | 22:50 | SE 20 | 16.09 | Mostly Cloudy | BKN016 BKN038 | 26.6 | 24.3 | 87% | 29 | 76.17 | 1015.7 | ||||||
| 30 | 21:50 | SE 19 | 16.09 | Mostly Cloudy | BKN016 BKN038 | 26.6 | 24.2 | 87% | 29 | 76.17 | 1015.6 | ||||||
| 30 | 20:50 | SE 19 | 16.09 | Mostly Cloudy | BKN016 BKN038 | 26.7 | 24.1 | 86% | 30 | 76.15 | 1015.4 | ||||||
| Date | Time (sst) | Wind (kph) | Vis. (km) | Weather | Sky Cond. | Air | Dwpt | Max. | Min. | Relative Humidity | Wind Chill (°C) | Heat Index (°C) | altimeter (cm) | sea level (mb) | 1 hr | 3 hr | 6 hr |
| 6 hour | |||||||||||||||||
| Temperature (ºC) | Pressure | Precipitation (cm) | |||||||||||||||